Regional Weather Roundup
Issued by NWS State College, PA

Home | Current Version | Previous Version | Graphics & Text | Print | Product List | Glossary Off
Versions: 1 2 3 4 5 6 7 8 9 10 11 12 13 14 15 16 17 18 19 20 21 22 23 24 25 26 27 28 29 30 31 32 33 34 35 36 37 38 39 40 41 42 43 44 45 46 47 48 49 50

000
ASUS41 KCTP 310803
RWRCTP

REGIONAL WEATHER ROUNDUP
NATIONAL WEATHER SERVICE STATE COLLEGE PA
400 AM EDT TUE MAY 31 2016

Note: "fair" indicates few or no clouds below 12,000 feet with no
significant weather and/or obstructions to visibility.

* = STATION THAT DOES NOT REPORT PRECIPITATION /E.G. RAIN...SNOW...ETC/
    THUNDER OR FOG.

PAZ002>004-007>009-013>016-020>023-029>032-310900-
WESTERN PENNSYLVANIA

CITY           SKY/WX    TMP DP  RH WIND       PRES   REMARKS
ERIE           CLEAR     62  55  77 S5        29.97R
MEADVILLE      CLEAR     59  54  83 CALM      30.01R
FRANKLIN*      CLEAR     55  52  88 CALM      30.04S
NEW CASTLE     PTSUNNY   56  55  97 CALM      30.01R
BEAVER COUNTY  NOT AVBL
BUTLER*        PTCLDY   N/A N/A N/A NE3       30.02S
PITTSBURGH INT PTCLDY    63  55  75 CALM      29.99S
PITTSBURGH     CLEAR     63  57  81 CALM      29.99R
INDIANA*       CLEAR     55  55 100 CALM      30.04S
LATROBE        CLEAR     55  55 100 CALM      30.01S
WASHINGTON CO* CLEAR     54  52  94 CALM      30.01R
$$

PAZ004>006-010>012-017>019-024>028-033>037-041-042-045-046-049>053-310900-
CENTRAL PENNSYLVANIA

CITY           SKY/WX    TMP DP  RH WIND       PRES   REMARKS
BRADFORD       CLEAR     48  46  93 CALM      30.03S
DUBOIS         PTCLDY    58  51  78 CALM      30.02R
CLEARFIELD     PTCLDY    54  51  90 CALM      30.02S
JOHNSTOWN      CLEAR     62  51  67 SW5       30.03S
ALTOONA        CLEAR     60  58  92 CALM      30.01R FOG
STATE COLLEGE  PTCLDY    61  60  96 CALM      30.00R
WILLIAMSPORT   CLOUDY    64  60  87 CALM      29.97R
SELINSGROVE    FOG       63  62  97 NW3       29.98R VSB 1/4
FT INDIANTOWN  NOT AVBL
CAPITAL CITY   MOCLDY    66  63  90 CALM      29.96S FOG
HARRISBURG     CLOUDY    70  65  84 CALM      29.95S
YORK           CLOUDY    67  65  93 CALM      29.96S
$$

PAZ038>040-043-044-047-048-054-055-060>062-067>071-310900-
EASTERN PENNSYLVANIA

CITY           SKY/WX    TMP DP  RH WIND       PRES   REMARKS
SCRANTON       CLOUDY    61  59  93 CALM      29.98R FOG
MOUNT POCONO   PTCLDY    59  57  93 NW6       30.00R
ALLENTOWN      CLOUDY    66  63  90 CALM      29.95S
QUAKERTOWN*    CLOUDY    68  68 100 CALM      29.96F
READING        CLOUDY    67  64  90 CALM      29.95S
LANCASTER      MOCLDY    65  64  97 N5        29.96S FOG
COATESVILLE    PTSUNNY   68  66  94 CALM      29.97S FOG
POTTSTOWN      MOCLDY    69  66  90 CALM      29.96F
BLUE BELL      CLOUDY    70  66  88 CALM      29.94S
DOYLESTOWN     CLOUDY    68  67  96 CALM      29.94F
WILLOW GROVE   NOT AVBL
NORTH PHILA    CLOUDY    73  68  84 CALM      29.96S
PHILADELPHIA   CLOUDY    71  67  87 S5        29.95F
$$




USA.gov is the U.S. government's official web portal to all federal, state and local government web resources and services.